User: anonymous   Login
Location: Caltech
(34.1382°N, 118.1253°W)
Time: 03:20:35
(UTC-07:00)
Language:

Gbstr 26 Del rocket - Orbit

View from above orbital plane
View from above orbital plane
View from above satellite
View from above satellite

Ground track
Ground track

The orbit data is extracted from the following two-line orbital elements,

1 25876U 99041E   15213.30822556  .00000140  00000-0  64488-4 0  9993
2 25876 051.7651 141.7249 0534905 189.8399 169.1711 14.03365840818272
Epoch (UTC): 01 August 2015 07:23:50
Eccentricity: 0.0534905
inclination: 51.7651°
perigee height: 494 km
apogee height: 1270 km
right ascension of ascending node: 141.7249°
argument of perigee: 189.8399°
revolutions per day: 14.03365840
mean anomaly at epoch: 169.1711°
orbit number at epoch: 81827

The dashed part of the orbit path shows where the satellite is in the earth's shadow,  

DLR